Miscellaneous Local Product
Issued by NWS North Platte, NE

Home | Current Version | Previous Version | Text Only | Print | Product List | Glossary On
Versions: 1 2 3 4 5 6 7 8 9 10 11 12 13 14 15 16 17 18 19 20 21 22 23 24 25 26 27 28 29 30 31 32 33 34 35 36 37 38 39 40 41 42 43 44 45 46 47 48 49 50
000
AXUS43 KLBF 231210
MISLBF


WESTERN AND NORTH CENTRAL NEBRASKA HOURLY WEATHER ROUNDUP
NATIONAL WEATHER SERVICE NORTH PLATTE NE
700 AM CDT WED JUL 23 2014

***STATIONS NOT REPORTING VARIABLES SUCH AS SKY/WEATHER OR
PRESSURE ARE PROVIDED BY THE NEBRASKA DEPARTMENT OF
ROADS...RAWS...AND APRS NETWORKS...AND ARE NOT UNDER
NATIONAL WEATHER SERVICE QUALITY CONTROL***

...OBSERVATIONS IN AND NEAR THE EASTERN PANHANDLE OF NEBRASKA...

CITY           SKY/WX    TMP DP  RH WIND       PRES   REMARKS
PINE RIDGE     MOCLDY    66  55  67 S6        30.27R
CHADRON        CLEAR     67  56  67 S9        30.26F
ALLIANCE       MOCLDY    66  58  75 E13       30.34F
SIDNEY         CLOUDY    68  64  87 SE13      30.32F
WHITECLAY        N/A     64  54  71 E6          N/A
RUSHVILLE        N/A     63  56  80 SE22        N/A
GORDON           N/A     65  60  84 S12         N/A
CRESCENT LAKE    N/A     63  51  63 E16G31      N/A
LISCO            N/A     72  63  74 N23         N/A
BIG SPRINGS      N/A     68  65  90 E3          N/A
$$

...OBSERVATIONS IN NORTH CENTRAL NEBRASKA...

CITY           SKY/WX    TMP DP  RH WIND       PRES   REMARKS
VALENTINE      CLOUDY    69  63  81 S10       30.22F
THEDFORD       CLOUDY    66  63  89 E6        30.33F
AINSWORTH      CLOUDY    64  61  90 S8        30.30F
O`NEILL        MOCLDY    61  56  85 SW3       30.33R
ORD            PTCLDY    60  58  92 N6        30.31R
BROKEN BOW     MOCLDY    64  61  90 N8        30.31R
BROWNLEE         N/A     70  66  86 S7          N/A
SPRINGVIEW       N/A     63  60  88 E3          N/A
DUNNING          N/A     67  67  99 E6          N/A
ROSE             N/A     66  66  99 MISG        N/A
NEWPORT          N/A     62  61  97 CALM        N/A
SARGENT          N/A     62  60  94 CALM        N/A
COMSTOCK         N/A     66  64  94 N5          N/A
CHAMBERS         N/A     61  59  92 CALM        N/A
$$

...OBSERVATIONS IN SOUTHWEST NEBRASKA AND FAR NORTHEAST COLORADO...

CITY           SKY/WX    TMP DP  RH WIND       PRES   REMARKS
WRAY             N/A     70  68  95 SE13G22   30.28F
HOLYOKE        CLOUDY    70  64  83 SE16G22   30.28F
IMPERIAL       CLOUDY    68  65  90 SE14      30.28S
OGALLALA       CLOUDY    64  62  91 E5        30.28F
NORTH PLATTE   PTCLDY    65  63  93 E8        30.29R
MCCOOK         PTCLDY    67  63  87 E7        30.27R
LEXINGTON      PTCLDY    67  66  94 E7        30.27F
PAXTON           N/A     65  62  91 CALM        N/A
SUTHERLAND       N/A     64  61  91 E6          N/A
BRADY            N/A     65  62  91 N3          N/A
GOTHENBURG       N/A     66  62  86 E5          N/A
CALLAWAY         N/A     64  63  97 SE12        N/A
$$

...NORTH PLATTE AREA...

CITY           SKY/WX    TMP DP  RH WIND       PRES   REMARKS
AIRPORT        PTCLDY    65  63  93 E8        30.29R
$$

...SOME WEATHER OBSERVATIONS FROM AROUND THE REGION...

CITY           SKY/WX    TMP DP  RH WIND       PRES   REMARKS
DENVER         PTCLDY    66  58  75 W7        30.34R
LARAMIE        CLEAR     57  55  93 S9        30.44R FOG
CHEYENNE       CLOUDY    62  60  93 S8        30.40R FOG
SCOTTSBLUFF    CLOUDY    68  61  78 E17       30.35S
RAPID CITY     PTCLDY    64  57  78 S6        30.24F
PIERRE         MOCLDY    64  59  83 E10       30.24R
WINNER         FAIR      65  59  81 SE8       30.28F
SIOUX FALLS    MOCLDY    60  56  86 NE7       30.28R
OMAHA          PTCLDY    64  58  80 N6        30.23R
GRAND ISLAND   CLEAR     63  60  90 N3        30.29S
KANSAS CITY    PTCLDY    71  67  87 N8        30.16R
WICHITA        MOCLDY    75  71  87 S3        30.12R FOG
HAYS           CLOUDY    73  63  68 NE15G23   30.25R
LIBERAL        CLEAR     70  64  83 CALM      30.24R
GOODLAND       CLOUDY    68  67  96 E13       30.31R
$$



USA.gov is the U.S. government's official web portal to all federal, state and local government web resources and services.